CW7448 Weather Reports


Display with metric or nautical units.
time (UTC)temp
F
wind
direction
speed
MPH
gust
MPH
rain 1hr
in
rain 24hr
in
rain mn
in
humidity
%
barometer
mb
20180816112319 70 225 0.0 1.0 0.00 0.00 0.00 95 1012.9
20180815235057 75 220 0.0 1.0 0.00 0.00 0.00 88 1011.2
20180815234057 76 220 0.0 0.0 0.00 0.00 0.00 87 1011.1
20180815233057 77 220 0.0 0.0 0.00 0.00 0.00 85 1011.1
20180815222055 82 232 0.0 9.0 0.00 0.00 0.00 77 1010.4
20180815221054 82 232 0.0 6.0 0.00 0.00 0.00 76 1010.4
20180815203057 87 190 0.0 22.0 0.00 0.00 0.00 72 1010.2
20180815202126 87 239 0.0 2.0 0.00 0.00 0.00 72 1010.3
20180815202056 86 225 2.0 14.0 0.00 0.00 0.00 71 1010.4
20180815183053 85 344 0.0 12.0 0.00 0.00 0.00 68 1010.4
20180815182052 85 206 1.0 15.0 0.00 0.00 0.00 69 1010.5
20180815174052 85 294 0.0 12.0 0.00 0.00 0.00 67 1010.4
20180815173051 84 239 0.0 16.0 0.00 0.00 0.00 72 1010.4
20180815170050 84 213 0.0 15.0 0.00 0.01 0.00 68 1010.7
20180815165050 83 159 1.0 14.0 0.00 0.01 0.00 71 1010.6
20180815164050 83 199 1.0 12.0 0.00 0.03 0.00 72 1010.6
20180815160049 82 194 0.0 11.0 0.00 0.03 0.00 75 1010.4
20180815153048 81 249 7.0 14.0 0.00 0.03 0.00 76 1010.4
20180815152047 81 267 7.0 12.0 0.00 0.03 0.00 77 1010.5
20180815150047 81 192 0.0 6.0 0.00 0.03 0.00 80 1010.4
20180815145047 80 286 6.0 7.0 0.00 0.03 0.00 81 1010.4
20180815144046 81 229 7.0 10.0 0.00 0.03 0.00 82 1010.3